Hourly Weather Godziszow

Today, 26 January, Tuesday

Time Temperature Precipitation Wind Pressure Humidity
00:00 -3°C° 0.2 mm 2 mps 724 mmHg 94%
01:00 -3°C° 0.2 mm 2 mps 724 mmHg 95%
02:00 -3°C° 0.2 mm 2 mps 724 mmHg 94%
03:00 -3°C° 0.2 mm 2 mps 725 mmHg 93%
04:00 -3°C° 0.2 mm 2 mps 725 mmHg 92%
05:00 -3°C° 0.1 mm 2 mps 725 mmHg 92%
06:00 -3°C° 0.1 mm 2 mps 725 mmHg 93%
07:00 -4°C° 0.1 mm 2 mps 726 mmHg 94%
08:00 -3°C° 0.1 mm 2 mps 726 mmHg 91%
09:00 -3°C° 0.1 mm 2 mps 727 mmHg 88%
10:00 -2°C° 0.1 mm 2 mps 727 mmHg 86%
11:00 -2°C° 0.1 mm 2 mps 727 mmHg 83%
12:00 -1°C° 0.1 mm 2 mps 727 mmHg 80%
13:00 -1°C° 0.1 mm 3 mps 727 mmHg 77%
14:00 -1°C° 0 mm 2 mps 727 mmHg 78%
15:00 -2°C° 0 mm 2 mps 727 mmHg 80%
16:00 0°C° 0 mm 1 mps 727 mmHg 82%
17:00 -3°C° 0 mm 2 mps 727 mmHg 83%
18:00 -3°C° 0 mm 2 mps 727 mmHg 84%
19:00 -4°C° 0 mm 2 mps 727 mmHg 86%
20:00 -2°C° 0 mm 1 mps 728 mmHg 86%
21:00 -2°C° 0 mm 1 mps 728 mmHg 87%
22:00 -2°C° 0 mm 1 mps 728 mmHg 87%
23:00 -2°C° 0.1 mm 1 mps 729 mmHg 89%

Tomorrow, 27 January, Wednesday

Time Temperature Precipitation Wind Pressure Humidity
00:00 -2°C° 0.1 mm 1 mps 729 mmHg 92%
01:00 -2°C° 0.1 mm 1 mps 729 mmHg 94%
02:00 -4°C° 0.4 mm 2 mps 729 mmHg 94%
03:00 -3°C° 0.4 mm 2 mps 729 mmHg 94%
04:00 -3°C° 0.4 mm 2 mps 729 mmHg 95%
05:00 -3°C° 0.3 mm 2 mps 729 mmHg 94%
06:00 -3°C° 0.3 mm 2 mps 729 mmHg 94%
07:00 -3°C° 0.3 mm 2 mps 729 mmHg 93%
08:00 -4°C° 0.3 mm 3 mps 729 mmHg 92%
09:00 -4°C° 0.3 mm 3 mps 729 mmHg 91%
10:00 -2°C° 0.3 mm 3 mps 730 mmHg 90%
11:00 -2°C° 0.2 mm 3 mps 729 mmHg 87%
12:00 -2°C° 0.2 mm 3 mps 729 mmHg 85%
13:00 -2°C° 0.2 mm 3 mps 729 mmHg 83%
14:00 -2°C° 0.1 mm 2 mps 729 mmHg 85%
15:00 -2°C° 0.1 mm 2 mps 729 mmHg 87%
16:00 -1°C° 0.1 mm 1 mps 729 mmHg 90%
17:00 -1°C° 0 mm 1 mps 729 mmHg 91%
18:00 -2°C° 0 mm 1 mps 729 mmHg 92%
19:00 -2°C° 0 mm 1 mps 729 mmHg 93%
20:00 -2°C° 0 mm 1 mps 729 mmHg 92%
21:00 -3°C° 0 mm 0 mps 729 mmHg 92%
22:00 -4°C° 0 mm 0 mps 729 mmHg 92%
23:00 -3°C° 0 mm 1 mps 729 mmHg 91%

Day after tomorrow, 28 January, Thursday

Time Temperature Precipitation Wind Pressure Humidity
00:00 -3°C° 0 mm 1 mps 729 mmHg 91%
01:00 -3°C° 0 mm 1 mps 728 mmHg 90%
02:00 -5°C° 0 mm 2 mps 728 mmHg 90%
03:00 -5°C° 0 mm 2 mps 727 mmHg 89%
04:00 -6°C° 0 mm 2 mps 727 mmHg 88%
05:00 -5°C° 0 mm 2 mps 727 mmHg 88%
06:00 -6°C° 0 mm 3 mps 726 mmHg 88%
07:00 -6°C° 0 mm 3 mps 726 mmHg 88%
08:00 -5°C° 0.2 mm 3 mps 726 mmHg 89%
09:00 -4°C° 0.2 mm 3 mps 725 mmHg 91%
10:00 -2°C° 0.2 mm 3 mps 725 mmHg 92%
11:00 -1°C° 0.1 mm 3 mps 725 mmHg 91%
12:00 0°C° 0.1 mm 3 mps 724 mmHg 90%
13:00 +1°C° 0.1 mm 3 mps 724 mmHg 89%
14:00 0°C° 0 mm 3 mps 724 mmHg 91%
15:00 +1°C° 0 mm 2 mps 723 mmHg 93%
16:00 +1°C° 0 mm 2 mps 722 mmHg 96%
17:00 -1°C° 0.1 mm 2 mps 722 mmHg 96%
18:00 -1°C° 0.1 mm 2 mps 722 mmHg 97%
19:00 -1°C° 0.1 mm 2 mps 722 mmHg 97%
20:00 -1°C° 0.7 mm 2 mps 721 mmHg 97%
21:00 +1°C° 0.7 mm 1 mps 721 mmHg 98%
22:00 +1°C° 0.7 mm 1 mps 720 mmHg 98%
23:00 +1°C° 1 mm 1 mps 720 mmHg 97%

29 January, Friday

Time Temperature Precipitation Wind Pressure Humidity
00:00 +1°C° 1 mm 1 mps 720 mmHg 96%
01:00 +1°C° 1 mm 1 mps 720 mmHg 95%
02:00 0°C° 0.4 mm 1 mps 720 mmHg 94%
03:00 0°C° 0.4 mm 1 mps 720 mmHg 93%
04:00 -1°C° 0.4 mm 1 mps 720 mmHg 93%
05:00 -1°C° 0 mm 1 mps 720 mmHg 91%
06:00 -2°C° 0 mm 1 mps 720 mmHg 90%
07:00 -3°C° 0 mm 1 mps 720 mmHg 89%
08:00 -2°C° 0 mm 1 mps 720 mmHg 84%
09:00 -1°C° 0 mm 1 mps 720 mmHg 78%
10:00 0°C° 0 mm 1 mps 720 mmHg 73%
11:00 +1°C° 0 mm 1 mps 719 mmHg 70%
12:00 +1°C° 0 mm 1 mps 719 mmHg 68%
13:00 +1°C° 0 mm 0 mps 719 mmHg 65%
14:00 +1°C° 0.1 mm 1 mps 719 mmHg 71%
15:00 +1°C° 0.1 mm 1 mps 719 mmHg 77%
16:00 0°C° 0.1 mm 1 mps 719 mmHg 83%
17:00 0°C° 0 mm 1 mps 719 mmHg 84%
18:00 -1°C° 0 mm 1 mps 719 mmHg 86%
19:00 -2°C° 0 mm 1 mps 720 mmHg 87%
20:00 -2°C° 0 mm 1 mps 720 mmHg 87%
21:00 -2°C° 0 mm 1 mps 720 mmHg 87%
22:00 -2°C° 0 mm 1 mps 720 mmHg 86%
23:00 -3°C° 0 mm 1 mps 721 mmHg 87%

30 January, Saturday

Time Temperature Precipitation Wind Pressure Humidity
00:00 -3°C° 0 mm 1 mps 721 mmHg 87%
01:00 -3°C° 0 mm 1 mps 721 mmHg 87%
02:00 -3°C° 0 mm 1 mps 721 mmHg 87%
03:00 -3°C° 0 mm 1 mps 721 mmHg 88%
04:00 -3°C° 0 mm 1 mps 721 mmHg 89%
05:00 -3°C° 0.2 mm 1 mps 721 mmHg 90%
06:00 -5°C° 0.2 mm 2 mps 721 mmHg 91%
07:00 -5°C° 0.2 mm 2 mps 721 mmHg 92%
08:00 -4°C° 0.1 mm 2 mps 722 mmHg 90%
09:00 -4°C° 0.1 mm 2 mps 722 mmHg 87%
10:00 -5°C° 0.1 mm 3 mps 723 mmHg 85%
11:00 -4°C° 0.1 mm 3 mps 723 mmHg 83%
12:00 -3°C° 0.1 mm 2 mps 723 mmHg 81%
13:00 -3°C° 0.1 mm 2 mps 723 mmHg 79%
14:00 -3°C° 0 mm 2 mps 723 mmHg 81%
15:00 -3°C° 0 mm 2 mps 723 mmHg 82%
16:00 -4°C° 0 mm 2 mps 723 mmHg 84%
17:00 -4°C° 0 mm 2 mps 723 mmHg 85%
18:00 -6°C° 0 mm 3 mps 723 mmHg 86%
19:00 -7°C° 0 mm 3 mps 723 mmHg 87%
20:00 -7°C° 0 mm 3 mps 724 mmHg 87%
21:00 -7°C° 0 mm 3 mps 724 mmHg 87%
22:00 -7°C° 0 mm 3 mps 725 mmHg 87%
23:00 -6°C° 0 mm 2 mps 725 mmHg 88%

31 January, Sunday

Time Temperature Precipitation Wind Pressure Humidity
00:00 -6°C° 0 mm 2 mps 725 mmHg 89%
01:00 -6°C° 0 mm 2 mps 725 mmHg 90%
02:00 -7°C° 0 mm 2 mps 725 mmHg 90%
03:00 -7°C° 0 mm 2 mps 725 mmHg 91%
04:00 -7°C° 0 mm 2 mps 725 mmHg 91%
05:00 -7°C° 0 mm 2 mps 726 mmHg 91%
06:00 -7°C° 0 mm 2 mps 726 mmHg 91%
07:00 -7°C° 0 mm 2 mps 726 mmHg 92%
08:00 -6°C° 0 mm 2 mps 726 mmHg 90%
09:00 -6°C° 0 mm 2 mps 726 mmHg 87%
10:00 -5°C° 0 mm 2 mps 727 mmHg 85%
11:00 -4°C° 0 mm 2 mps 726 mmHg 82%
12:00 -3°C° 0 mm 2 mps 726 mmHg 79%
13:00 -2°C° 0 mm 3 mps 726 mmHg 76%
14:00 -3°C° 0 mm 2 mps 725 mmHg 79%
15:00 -3°C° 0 mm 2 mps 725 mmHg 81%
16:00 -4°C° 0 mm 2 mps 724 mmHg 83%
17:00 -5°C° 0 mm 2 mps 724 mmHg 84%
18:00 -5°C° 0 mm 2 mps 723 mmHg 85%
19:00 -6°C° 0 mm 2 mps 723 mmHg 86%
20:00 -6°C° 0 mm 2 mps 723 mmHg 84%
21:00 -6°C° 0 mm 2 mps 723 mmHg 83%
22:00 -6°C° 0 mm 2 mps 722 mmHg 82%
23:00 -6°C° 0 mm 2 mps 722 mmHg 81%
Show more